| time (UTC) | temp C | wind direction | speed KPH | gust KPH | rain 1hr cm | rain 24hr cm | rain mn cm | humidity % | barometer mb |
| 20260504224304 | 22 | 299 | 20.9 | 22.5 | 0.00 | 0.00 | 0.00 | 83 | 1015.8 |
| 20260504223705 | 22 | 316 | 20.9 | 22.5 | 0.00 | 0.00 | 0.00 | 84 | 1015.6 |
| 20260504223105 | 21 | 322 | 20.9 | 22.5 | 0.00 | 0.00 | 0.00 | 85 | 1015.7 |
| 20260504221905 | 20 | 26 | 20.9 | 24.1 | 0.00 | 0.00 | 0.00 | 90 | 1015.8 |
| 20260504221305 | 19 | 99 | 20.9 | 22.5 | 0.00 | 0.00 | 0.00 | 90 | 1015.8 |
| 20260504220704 | 19 | 108 | 20.9 | 22.5 | 0.00 | 0.00 | 0.00 | 93 | 1015.8 |
| 20260504220104 | 19 | 121 | 20.9 | 22.5 | 0.00 | 0.00 | 0.00 | 92 | 1015.8 |
| 20260504215505 | 18 | 112 | 20.9 | 24.1 | 0.00 | 0.00 | 0.00 | 95 | 1015.8 |
| 20260504214905 | 17 | 114 | 20.9 | 24.1 | 0.00 | 0.00 | 0.00 | 94 | 1015.8 |
| 20260504214305 | 17 | 115 | 22.5 | 24.1 | 0.00 | 0.00 | 0.00 | 95 | 1015.8 |
| 20260504213705 | 17 | 114 | 22.5 | 24.1 | 0.00 | 0.00 | 0.00 | 95 | 1015.8 |
| 20260504213105 | 16 | 114 | 24.1 | 25.7 | 0.00 | 0.00 | 0.00 | 99 | 1015.7 |
| 20260504212505 | 15 | 114 | 24.1 | 25.7 | 0.00 | 0.00 | 0.00 | 99 | 1015.7 |
| 20260504211905 | 15 | 125 | 22.5 | 25.7 | 0.00 | 0.00 | 0.00 | 99 | 1015.5 |
| 20260504211304 | 15 | 135 | 24.1 | 25.7 | 0.00 | 0.00 | 0.00 | 99 | 1015.5 |
| 20260504210704 | 15 | 236 | 24.1 | 25.7 | 0.00 | 0.00 | 0.00 | 99 | 1015.5 |
| 20260504210105 | 15 | 121 | 22.5 | 25.7 | 0.00 | 0.00 | 0.00 | 99 | 1015.4 |
| 20260504204905 | 14 | 128 | 24.1 | 25.7 | 0.00 | 0.00 | 0.00 | 99 | 1015.2 |
| 20260504204305 | 14 | 168 | 24.1 | 25.7 | 0.00 | 0.00 | 0.00 | 99 | 1015.0 |
| 20260504203705 | 14 | 239 | 24.1 | 25.7 | 0.00 | 0.00 | 0.00 | 99 | 1014.9 |
| 20260504203105 | 15 | 232 | 24.1 | 27.4 | 0.00 | 0.00 | 0.00 | 99 | 1014.8 |
| 20260504202504 | 15 | 169 | 24.1 | 27.4 | 0.00 | 0.00 | 0.00 | 99 | 1014.9 |
| 20260504201904 | 15 | 147 | 24.1 | 25.7 | 0.00 | 0.00 | 0.00 | 99 | 1014.5 |
| 20260504201304 | 15 | 118 | 24.1 | 24.1 | 0.00 | 0.00 | 0.00 | 99 | 1014.4 |
| 20260504200704 | 15 | 117 | 24.1 | 25.7 | 0.00 | 0.00 | 0.00 | 99 | 1014.4 |
| 20260504200105 | 15 | 117 | 24.1 | 25.7 | 0.00 | 0.00 | 0.00 | 99 | 1014.3 |
| 20260504195505 | 15 | 116 | 24.1 | 25.7 | 0.00 | 0.00 | 0.00 | 99 | 1014.2 |
| 20260504194905 | 15 | 132 | 24.1 | 25.7 | 0.00 | 0.00 | 0.00 | 99 | 1014.3 |
| 20260504194305 | 15 | 157 | 24.1 | 25.7 | 0.00 | 0.00 | 0.00 | 99 | 1014.2 |
| 20260504193705 | 14 | 151 | 24.1 | 25.7 | 0.00 | 0.00 | 0.00 | 99 | 1014.3 |
| 20260504193105 | 14 | 139 | 24.1 | 25.7 | 0.00 | 0.00 | 0.00 | 99 | 1014.3 |
| 20260504192504 | 14 | 216 | 24.1 | 27.4 | 0.00 | 0.00 | 0.00 | 99 | 1014.2 |
| 20260504191304 | 14 | 233 | 24.1 | 25.7 | 0.00 | 0.00 | 0.00 | 99 | 1014.0 |
| 20260504190705 | 14 | 179 | 24.1 | 25.7 | 0.00 | 0.00 | 0.00 | 99 | 1014.2 |
| 20260504190105 | 14 | 253 | 24.1 | 25.7 | 0.00 | 0.00 | 0.00 | 99 | 1014.0 |
| 20260504185505 | 14 | 261 | 24.1 | 25.7 | 0.00 | 0.00 | 0.00 | 99 | 1014.1 |
| 20260504184905 | 14 | 188 | 24.1 | 25.7 | 0.00 | 0.00 | 0.00 | 99 | 1014.2 |
| 20260504184305 | 14 | 230 | 24.1 | 25.7 | 0.00 | 0.00 | 0.00 | 99 | 1014.0 |
| 20260504183105 | 15 | 245 | 24.1 | 25.7 | 0.00 | 0.00 | 0.00 | 99 | 1013.8 |
| 20260504182505 | 15 | 208 | 24.1 | 25.7 | 0.00 | 0.00 | 0.00 | 99 | 1013.8 |
| 20260504181904 | 15 | 100 | 24.1 | 25.7 | 0.00 | 0.00 | 0.00 | 99 | 1014.0 |
| 20260504181305 | 15 | 107 | 24.1 | 25.7 | 0.00 | 0.00 | 0.00 | 99 | 1013.9 |
| 20260504175505 | 15 | 138 | 22.5 | 25.7 | 0.00 | 0.00 | 0.00 | 99 | 1013.9 |
| 20260504174304 | 15 | 119 | 24.1 | 25.7 | 0.00 | 0.00 | 0.00 | 99 | 1014.0 |
| 20260504173704 | 15 | 118 | 24.1 | 25.7 | 0.00 | 0.00 | 0.00 | 99 | 1013.8 |
| 20260504173104 | 15 | 126 | 24.1 | 27.4 | 0.00 | 0.00 | 0.00 | 99 | 1013.9 |
| 20260504172505 | 15 | 155 | 24.1 | 27.4 | 0.00 | 0.00 | 0.00 | 99 | 1013.8 |
| 20260504170105 | 15 | 124 | 24.1 | 27.4 | 0.00 | 0.00 | 0.00 | 99 | 1014.0 |
| 20260504160104 | 15 | 260 | 24.1 | 25.7 | 0.00 | 0.00 | 0.00 | 99 | 1014.5 |
| 20260504150704 | 15 | 132 | 24.1 | 25.7 | 0.00 | 0.00 | 0.00 | 99 | 1015.0 |
| 20260504150104 | 15 | 124 | 22.5 | 25.7 | 0.00 | 0.00 | 0.00 | 99 | 1015.0 |
| 20260504141304 | 15 | 178 | 24.1 | 25.7 | 0.00 | 0.00 | 0.00 | 99 | 1015.2 |
| 20260504140105 | 16 | 191 | 24.1 | 25.7 | 0.00 | 0.00 | 0.00 | 99 | 1015.2 |
| 20260504130705 | 16 | 138 | 24.1 | 27.4 | 0.00 | 0.00 | 0.00 | 99 | 1015.5 |
| 20260504130105 | 16 | 142 | 24.1 | 27.4 | 0.00 | 0.00 | 0.00 | 99 | 1015.5 |
| 20260504110705 | 16 | 257 | 24.1 | 27.4 | 0.00 | 0.03 | 0.00 | 99 | 1016.0 |
| 20260504110105 | 17 | 248 | 24.1 | 27.4 | 0.00 | 0.03 | 0.00 | 99 | 1016.0 |
| 20260504090104 | 17 | 138 | 22.5 | 25.7 | 0.00 | 0.05 | 0.00 | 96 | 1015.0 |
| 20260504081305 | 21 | 110 | 14.5 | 16.1 | 0.00 | 0.05 | 0.00 | 79 | 1014.3 |
| 20260504080705 | 22 | 108 | 14.5 | 17.7 | 0.00 | 0.05 | 0.00 | 77 | 1014.3 |
| 20260504080104 | 22 | 115 | 14.5 | 17.7 | 0.00 | 0.05 | 0.00 | 76 | 1014.3 |
| 20260504070105 | 25 | 99 | 12.9 | 19.3 | 0.00 | 0.05 | 0.00 | 69 | 1013.5 |
| 20260504050704 | 28 | 85 | 24.1 | 27.4 | 0.00 | 0.05 | 0.00 | 56 | 1013.2 |
| 20260504050105 | 28 | 74 | 24.1 | 30.6 | 0.00 | 0.05 | 0.00 | 56 | 1013.0 |
| 20260504045505 | 28 | 111 | 22.5 | 30.6 | 0.00 | 0.05 | 0.00 | 55 | 1013.0 |
| 20260504044905 | 28 | 95 | 19.3 | 24.1 | 0.00 | 0.05 | 0.00 | 55 | 1013.0 |
| 20260504044305 | 28 | 97 | 22.5 | 27.4 | 0.00 | 0.05 | 0.00 | 56 | 1013.1 |
| 20260504043704 | 28 | 103 | 22.5 | 27.4 | 0.00 | 0.05 | 0.00 | 56 | 1013.2 |
| 20260504042505 | 28 | 92 | 12.9 | 19.3 | 0.00 | 0.05 | 0.00 | 54 | 1013.1 |
| 20260504041905 | 28 | 107 | 14.5 | 19.3 | 0.00 | 0.05 | 0.00 | 56 | 1013.0 |
| 20260504041304 | 28 | 97 | 19.3 | 25.7 | 0.00 | 0.05 | 0.00 | 56 | 1013.0 |
| 20260504040705 | 28 | 78 | 22.5 | 27.4 | 0.00 | 0.05 | 0.00 | 56 | 1013.0 |
| 20260504040105 | 28 | 79 | 22.5 | 29.0 | 0.00 | 0.05 | 0.00 | 55 | 1013.0 |
| 20260504035504 | 28 | 106 | 20.9 | 29.0 | 0.00 | 0.05 | 0.00 | 54 | 1013.0 |
| 20260504034904 | 28 | 98 | 20.9 | 25.7 | 0.00 | 0.05 | 0.00 | 54 | 1013.1 |
| 20260504034304 | 28 | 103 | 22.5 | 27.4 | 0.00 | 0.05 | 0.00 | 54 | 1013.1 |
| 20260504033705 | 28 | 100 | 24.1 | 27.4 | 0.00 | 0.05 | 0.00 | 56 | 1013.2 |
| 20260504033105 | 28 | 99 | 22.5 | 27.4 | 0.00 | 0.05 | 0.00 | 54 | 1013.2 |
| 20260504031905 | 28 | 104 | 22.5 | 29.0 | 0.00 | 0.05 | 0.00 | 54 | 1013.5 |
| 20260504031305 | 28 | 84 | 22.5 | 29.0 | 0.00 | 0.05 | 0.00 | 56 | 1013.4 |
| 20260504030104 | 28 | 97 | 22.5 | 29.0 | 0.00 | 0.05 | 0.00 | 58 | 1013.7 |
| 20260504024905 | 28 | 117 | 22.5 | 32.2 | 0.00 | 0.05 | 0.00 | 57 | 1014.0 |
| 20260504024305 | 28 | 108 | 22.5 | 30.6 | 0.00 | 0.05 | 0.00 | 58 | 1014.1 |
| 20260504023705 | 27 | 112 | 20.9 | 27.4 | 0.00 | 0.05 | 0.00 | 60 | 1014.3 |
| 20260504023104 | 27 | 117 | 19.3 | 25.7 | 0.00 | 0.05 | 0.00 | 61 | 1014.5 |
| 20260504022504 | 27 | 106 | 22.5 | 27.4 | 0.00 | 0.05 | 0.00 | 59 | 1014.7 |
| 20260504021904 | 27 | 97 | 22.5 | 25.7 | 0.00 | 0.05 | 0.00 | 65 | 1014.7 |
| 20260504020705 | 27 | 103 | 24.1 | 30.6 | 0.00 | 0.05 | 0.00 | 66 | 1014.8 |
| 20260504020105 | 26 | 131 | 22.5 | 30.6 | 0.00 | 0.05 | 0.00 | 68 | 1014.8 |
| 20260504015505 | 26 | 124 | 24.1 | 32.2 | 0.00 | 0.05 | 0.00 | 73 | 1015.0 |
| 20260504014905 | 26 | 114 | 24.1 | 32.2 | 0.00 | 0.05 | 0.00 | 70 | 1015.2 |
| 20260504014305 | 26 | 110 | 24.1 | 29.0 | 0.00 | 0.05 | 0.00 | 72 | 1015.1 |
| 20260504013704 | 26 | 111 | 24.1 | 29.0 | 0.00 | 0.05 | 0.00 | 72 | 1015.4 |
| 20260504013105 | 25 | 96 | 22.5 | 27.4 | 0.00 | 0.05 | 0.00 | 74 | 1015.5 |
| 20260504010705 | 26 | 116 | 25.7 | 37.0 | 0.00 | 0.05 | 0.00 | 68 | 1015.5 |
| 20260504010105 | 26 | 118 | 24.1 | 29.0 | 0.00 | 0.05 | 0.00 | 70 | 1015.8 |
| 20260504005505 | 26 | 112 | 24.1 | 32.2 | 0.00 | 0.05 | 0.00 | 69 | 1015.8 |
| 20260504003105 | 26 | 103 | 24.1 | 32.2 | 0.00 | 0.08 | 0.00 | 70 | 1016.1 |
| 20260504002505 | 26 | 107 | 22.5 | 29.0 | 0.00 | 0.08 | 0.00 | 71 | 1016.1 |
| 20260504001904 | 26 | 111 | 24.1 | 27.4 | 0.00 | 0.08 | 0.00 | 71 | 1016.2 |
| 20260504000705 | 25 | 100 | 24.1 | 30.6 | 0.00 | 0.08 | 0.00 | 74 | 1016.2 |
| 20260504000105 | 25 | 98 | 24.1 | 30.6 | 0.00 | 0.08 | 0.00 | 75 | 1016.2 |
| 20260503235505 | 25 | 107 | 22.5 | 30.6 | 0.00 | 0.08 | 0.00 | 74 | 1016.3 |
| 20260503234905 | 25 | 112 | 22.5 | 30.6 | 0.00 | 0.08 | 0.00 | 76 | 1016.3 |
| 20260503234304 | 25 | 119 | 22.5 | 33.8 | 0.00 | 0.08 | 0.00 | 75 | 1016.4 |
| 20260503233105 | 24 | 95 | 22.5 | 29.0 | 0.00 | 0.08 | 0.00 | 78 | 1016.4 |
| 20260503232505 | 25 | 96 | 22.5 | 29.0 | 0.00 | 0.08 | 0.00 | 76 | 1016.4 |
| 20260503231904 | 25 | 99 | 22.5 | 30.6 | 0.00 | 0.08 | 0.00 | 75 | 1016.4 |
| 20260503230104 | 25 | 108 | 22.5 | 29.0 | 0.00 | 0.08 | 0.00 | 75 | 1016.1 |
| 20260503225504 | 24 | 114 | 22.5 | 29.0 | 0.00 | 0.08 | 0.00 | 78 | 1016.2 |
| 20260503224904 | 23 | 95 | 22.5 | 27.4 | 0.00 | 0.08 | 0.00 | 79 | 1016.2 |